Regional Weather Roundup
Issued by NWS

Home | Current Version | Previous Version | Text Only | Print | Product List | Glossary On
Versions: 1 2 3 4 5 6 7 8 9 10 11 12 13 14 15 16 17 18 19 20 21 22 23 24 25 26 27 28 29 30 31 32 33 34 35 36 37 38 39 40 41 42 43 44 45 46 47 48 49 50
000
ASUS44 KJAN 271810
RWRMS

MISSISSIPPI HOURLY WEATHER ROUNDUP
NATIONAL WEATHER SERVICE JACKSON MS
100 PM CDT FRI MAY 27 2016

NOTE: "FAIR: INDICATES FEW OR NO CLOUDS BELOW 12,000 FEET WITH NO
SIGNIFICANT WEATHER AND/OR OBSTRUCTIONS TO VISIBILITY.

MSZ001>002-007>008-010>013-018>021-025>028-034>036-271900-
NORTHWEST MISSISSIPPI

CITY           SKY/WX    TMP DP  RH WIND       PRES   REMARKS
BATESVILLE     FAIR      78  68  71 S10G17    29.95F
CLARKSDALE     PTSUNNY   81  73  78 S15G22    29.90F
CLEVELAND      MOCLDY    81  72  75 S16G24    29.89F
GREENWOOD      CLOUDY    80  69  69 S14       29.93F
6HR MIN TEMP:  73; 6HR MAX TEMP:  80; 6HR PCP: TRACE;

GREENVILLE     CLOUDY    82  69  64 SE14G21   29.89F
6HR MIN TEMP:  75; 6HR MAX TEMP:  82; 6HR PCP: TRACE;

OLIVE BRANCH   PTSUNNY   79  72  78 S12G23    29.93F
OXFORD         FAIR      75  66  73 S14G24    29.98F
TUNICA         LGT RAIN  77  68  73 S16G28    29.92F
WINONA         FAIR      77  70  78 SE9       29.97F
$$

MSZ003>006-009-014>017-022>024-029>033-037>039-271900-
NORTHEAST MISSISSIPPI

CITY           SKY/WX    TMP DP  RH WIND       PRES   REMARKS
COLUMBUS AFB   CLOUDY    85  65  50 S15G21    30.00F
6HR MIN TEMP:  71; 6HR MAX TEMP:  85;

CORINTH        FAIR      79  66  65 S13       29.99F
GOLDN TRIANGLE PTSUNNY   82  64  54 S12G18    30.01F
STARKVILLE     FAIR      81  68  65 S8        30.00F
TUPELO         PTSUNNY   82  65  56 S13G23    29.99F
6HR MIN TEMP:  72; 6HR MAX TEMP:  82;

$$

MSZ040-058-271900-
CENTRAL MISSISSIPPI

CITY           SKY/WX    TMP DP  RH WIND       PRES   REMARKS
JACKSON INTL   PTSUNNY   84  66  54 SE20G28   29.94F
6HR MIN TEMP:  74; 6HR MAX TEMP:  85;

JACKSON HAWKNS PTSUNNY   82  67  60 S17G25    29.94F
6HR MIN TEMP:  73; 6HR MAX TEMP:  83; 6HR PCP: TRACE;

MADISON        FAIR      82  66  57 SE9       29.95F
MERIDIAN KEY   CLOUDY    84  66  54 S14       30.01F
6HR MIN TEMP:  75; 6HR MAX TEMP:  84; 6HR PCP: TRACE;

MERIDIAN NAS   CLOUDY    85  64  49 S12       30.02F
6HR MIN TEMP:  71; 6HR MAX TEMP:  85;

VICKSBURG TVR  CLOUDY    83  69  62 S17       29.89F
6HR MIN TEMP:  77; 6HR MAX TEMP:  85;

VICKSBURG VKS  PTCLDY    82  70  65 S10G18    29.91S
$$

MSZ059>079-271900-
SOUTH MISSISSIPPI

CITY           SKY/WX    TMP DP  RH WIND       PRES   REMARKS
BROOKHAVEN     FAIR     N/A N/A N/A SE12      29.95F
COLUMBIA       FAIR      84  66  54 SE14      30.00F
HATTIESBURG    CLOUDY    83  61  47 S16G22    30.01F
6HR MIN TEMP:  74; 6HR MAX TEMP:  84;

MCCOMB         PTSUNNY   81  64  56 SE13      29.95F
6HR MIN TEMP:  73; 6HR MAX TEMP:  83;

NATCHEZ        CLOUDY    81  72  74 SE15      29.90F
6HR MIN TEMP:  73; 6HR MAX TEMP:  81;

PINE BELT      CLOUDY    82  63  51 SE15G21   30.02F
6HR MIN TEMP:  72; 6HR MAX TEMP:  82;

$$

MSZ080>082-271900-
COASTAL MISSISSIPPI

CITY           SKY/WX    TMP DP  RH WIND       PRES   REMARKS
BAY ST LOUIS   MOSUNNY   82  59  44 SE14G23   30.00F
BILOXI         PTSUNNY   82  66  58 S13       30.01F
6HR MIN TEMP:  80; 6HR MAX TEMP:  84;

PASCAGOULA     CLOUDY    85  69  58 SE15      30.03S
6HR MIN TEMP:  73; 6HR MAX TEMP:  85;

GULFPORT       CLOUDY    83  66  56 SE16      30.01F
6HR MIN TEMP:  79; 6HR MAX TEMP:  84;

$$



USA.gov is the U.S. government's official web portal to all federal, state and local government web resources and services.